Theta_e
331 340 345 344 342 341 341 345 345 346 346 347 347 346 345 343 342 340 339 337 336 335 335 335 334 335 336 335 334 333 333 333 333 333 333 334 333 332 332 332 331 330 332
334 342 343 344 342 341 341 345 345 345 346 347 346 346 344 343 341 340 338 337 336 335 334 334 334 333 334 333 332 332 333 334 332 332 331 331 332 331 331 331 331 329 330
337 342 341 340 342 343 343 345 346 345 345 345 346 345 345 343 342 339 338 337 336 336 334 333 332 331 331 330 330 332 333 333 330 329 329 328 329 332 330 330 331 330 329
338 341 338 340 342 343 342 345 346 344 343 342 341 340 340 341 341 341 340 338 335 336 335 334 333 332 331 330 330 331 332 332 329 326 323 325 326 330 331 329 329 329 328
338 341 340 342 342 342 342 344 343 342 340 338 337 337 337 336 334 335 337 338 337 335 336 335 334 332 332 332 332 333 333 331 328 323 324 324 327 328 333 331 328 328 327
338 341 341 343 344 343 344 344 341 338 337 336 336 335 335 334 333 332 332 332 335 338 336 335 334 333 333 333 333 333 332 331 326 322 321 320 320 324 332 334 332 331 331
337 340 343 342 343 343 341 339 338 339 337 335 334 334 333 333 332 332 332 331 331 333 334 335 335 334 334 333 332 330 330 330 326 323 323 323 323 328 330 332 333 333 332
336 340 341 336 339 341 341 341 342 340 337 335 334 333 332 332 332 331 331 332 331 330 330 330 330 331 331 331 330 330 331 329 326 326 325 325 325 329 331 333 334 334 333
336 338 338 340 338 334 337 338 340 341 339 338 336 336 334 334 333 333 334 334 333 333 333 333 333 332 332 333 333 333 331 329 329 328 326 327 326 333 334 334 335 335 335
333 334 334 336 337 339 340 333 335 337 337 336 335 333 331 331 332 331 330 331 332 333 334 335 336 335 335 335 334 331 329 328 329 328 328 328 328 334 337 336 337 337 336
330 331 333 334 335 338 338 334 329 329 333 332 332 329 329 334 333 331 328 330 333 333 333 334 334 335 334 331 330 328 326 330 329 328 329 327 330 335 337 337 337 337 337
325 328 331 334 334 335 335 335 334 334 337 336 335 334 334 333 332 330 324 324 327 328 330 332 333 331 327 332 331 327 330 329 329 329 329 327 331 336 337 337 336 336 336
327 328 330 331 331 331 332 333 331 331 333 333 332 334 333 332 331 330 329 328 329 322 330 329 329 329 329 329 330 330 330 330 330 330 328 326 331 335 337 337 337 336 337
324 326 328 329 329 329 330 330 330 331 331 332 333 332 332 331 330 329 327 328 327 328 328 328 328 328 328 328 329 329 329 330 330 330 329 322 327 333 336 338 337 336 338
325 325 327 328 328 328 328 328 328 328 329 329 328 329 330 329 329 328 327 327 328 328 328 328 328 328 328 329 329 329 329 330 330 329 330 321 323 329 333 336 337 337 336
326 326 328 328 329 329 329 329 329 329 329 329 329 329 328 328 328 328 328 328 328 329 329 328 328 328 328 328 328 329 329 329 329 329 329 328 323 326 329 332 334 334 335
327 328 329 330 331 330 331 331 331 331 331 330 330 331 330 330 330 329 329 329 329 328 327 327 327 326 327 329 325 327 329 329 327 325 324 325 325 322 323 327 329 331 333
328 328 329 331 331 331 331 332 331 332 331 331 331 331 331 330 330 330 329 329 330 329 328 328 327 327 328 329 327 326 324 322 321 321 322 323 324 324 324 323 325 325 326
328 329 329 329 330 330 330 330 331 331 331 331 331 330 330 330 329 330 330 331 331 330 328 326 326 325 323 321 319 319 319 319 319 319 320 321 322 322 322 320 316 316 319
325 326 326 327 328 328 329 329 329 328 327 322 320 319 320 321 322 324 323 322 323 322 320 319 319 319 318 317 316 316 317 318 319 320 319 318 319 318 318 318 318 317 314
314 317 321 318 316 325 326 326 325 323 319 315 316 316 316 317 317 317 317 316 316 315 315 315 316 314 314 315 315 313 316 317 318 317 317 317 317 315 315 315 316 315 315
308 309 309 309 310 312 316 316 319 315 313 313 313 312 313 313 313 313 313 312 311 311 311 311 311 311 312 314 309 311 308 310 315 314 315 315 315 314 313 313 313 312 313
304 305 304 305 306 308 311 312 312 312 310 309 307 307 305 306 307 309 308 308 307 308 306 308 309 309 308 312 311 310 305 303 306 311 311 312 312 311 311 311 310 310 309
301 302 302 302 303 304 307 308 308 307 305 304 302 302 301 301 300 302 302 303 303 303 302 303 304 305 306 304 307 310 307 307 301 300 310 308 308 306 307 308 308 308 307
300 299 300 300 299 299 300 302 302 300 299 299 298 298 298 298 297 297 298 298 298 299 299 299 299 300 301 302 301 301 301 301 306 298 296 300 301 302 303 305 306 306 306
300 299 298 297 296 297 298 297 297 297 296 296 295 295 295 296 295 294 295 295 295 295 295 295 296 296 296 296 296 296 296 295 295 295 293 294 294 297 301 300 303 305 305
Wind_Speed
6 8 13 14 14 14 12 11 10 13 14 15 15 14 15 14 13 13 12 12 12 12 12 12 12 12 12 12 12 11 11 10 9 9 9 9 9 9 8 7 7 7 8
11 9 12 14 14 13 13 12 12 12 13 14 14 14 14 13 13 12 11 10 10 11 11 12 11 11 10 10 10 10 11 11 10 8 7 8 8 8 7 7 6 6 7
12 10 12 13 14 13 13 12 11 11 13 13 13 12 12 11 11 10 9 9 9 10 10 11 10 10 10 8 8 9 10 11 11 9 7 5 6 9 7 6 6 5 6
12 9 11 11 14 15 12 11 11 11 11 11 11 10 10 9 9 9 9 6 7 8 8 9 9 9 8 8 8 8 9 9 9 8 4 5 5 7 7 6 6 6 6
11 10 10 10 14 14 13 11 11 10 9 9 8 8 8 8 7 6 7 6 7 6 6 6 7 6 6 6 7 7 8 8 7 6 5 5 5 6 9 6 5 6 7
10 10 11 12 14 12 12 12 11 9 8 7 7 7 6 6 6 6 5 5 6 7 5 4 3 5 6 8 9 10 10 9 6 6 6 6 6 9 10 11 7 6 7
10 10 11 12 12 11 11 11 10 9 8 7 6 6 5 5 4 4 5 5 4 5 6 7 5 5 6 8 9 10 9 8 7 6 6 6 7 11 11 11 12 10 10
12 9 9 10 10 10 10 9 9 8 7 6 6 5 5 4 3 2 3 3 4 4 5 5 5 6 7 8 8 8 7 8 7 7 7 6 9 12 12 12 12 13 12
11 10 8 7 9 8 9 9 8 7 6 5 5 4 4 3 2 3 4 5 5 5 5 5 5 6 7 8 8 7 8 8 8 6 7 6 10 14 14 14 14 14 15
10 10 8 7 7 6 6 6 6 5 5 4 3 3 2 2 3 4 5 5 8 9 10 11 10 10 10 11 9 9 10 9 7 7 6 6 12 14 15 15 16 15 15
7 9 8 7 7 6 5 4 3 1 5 4 2 0 1 1 2 3 3 4 6 7 7 8 9 8 8 7 8 8 8 5 6 5 5 9 13 14 15 16 16 17 17
11 9 8 7 7 5 3 3 3 2 2 2 2 1 1 2 3 4 5 6 7 7 8 9 10 9 6 5 4 5 4 7 6 6 6 12 14 16 17 17 16 16 17
10 7 8 7 6 5 3 2 1 1 0 1 3 3 3 2 3 3 3 3 4 3 4 5 6 4 6 5 5 5 6 6 5 6 8 13 16 17 18 18 19 19 19
9 10 8 7 6 6 3 3 2 2 2 3 3 4 3 3 3 4 3 4 3 3 5 4 4 5 7 7 7 8 8 8 6 6 8 11 16 19 20 20 19 20 20
9 8 8 7 7 5 5 3 3 4 3 3 3 4 3 3 4 3 4 4 5 4 4 5 5 5 6 7 7 8 9 10 10 6 6 10 13 17 18 19 20 21 21
7 8 7 8 7 6 5 5 3 3 3 3 3 3 4 4 4 4 4 5 5 4 5 5 6 5 5 6 7 7 9 8 9 10 8 10 10 14 16 18 19 19 20
5 6 8 8 7 6 6 5 4 3 3 3 3 4 5 4 5 5 5 5 5 4 4 4 5 4 5 5 6 5 7 9 9 11 10 8 9 9 11 13 15 15 17
5 7 6 5 7 7 5 4 3 2 2 2 3 3 4 5 4 5 5 5 4 4 3 4 3 5 5 5 6 8 8 9 10 10 9 8 7 7 6 9 12 13 15
6 5 5 5 5 4 4 3 3 1 1 2 2 4 6 5 5 3 3 4 4 3 4 4 4 4 6 7 7 9 8 8 8 6 7 7 7 6 5 7 9 9 12
3 3 4 3 4 4 3 2 2 3 4 6 6 6 8 6 8 7 6 8 6 5 6 6 6 5 6 6 8 8 9 8 4 3 7 5 4 5 6 7 6 6 9
5 5 3 5 2 2 1 2 3 4 5 6 6 9 9 9 9 9 6 7 6 7 7 8 5 7 5 7 4 9 6 5 1 5 6 5 5 6 6 6 5 6 6
5 6 6 6 5 4 3 2 3 5 6 6 6 9 10 10 10 9 9 8 9 7 9 9 8 4 3 3 3 4 4 4 3 10 4 5 5 5 5 7 8 9 8
7 6 8 7 6 5 4 5 5 5 3 3 6 6 9 10 10 10 9 8 8 6 5 5 6 7 4 2 7 2 4 3 9 5 11 4 7 6 7 9 9 9 8
6 5 7 8 8 7 6 6 5 3 4 3 4 5 7 10 10 10 9 8 7 5 7 6 5 5 4 5 4 3 4 5 5 7 3 11 8 10 13 9 10 10 9
5 6 6 9 10 9 9 8 8 10 7 5 5 7 8 8 11 10 9 9 8 5 6 7 7 7 4 4 4 4 4 7 3 5 10 6 9 9 9 8 9 10 9
6 6 7 10 9 9 10 10 10 10 8 6 6 6 5 5 7 10 9 8 8 8 9 7 7 8 7 6 5 5 4 4 7 6 8 12 14 8 8 9 7 7 6
Wind_Direction
170 156 137 132 129 126 121 105 93 102 124 117 113 110 103 99 94 91 87 83 80 79 78 76 78 75 74 71 67 62 55 47 37 34 38 34 35 39 42 44 35 35 32
145 151 137 133 134 134 128 113 100 92 103 108 111 111 105 102 97 89 87 83 80 78 76 75 74 75 71 64 56 51 45 34 27 30 42 31 14 29 35 31 29 37 33
142 147 137 137 139 138 134 123 109 98 96 98 97 96 107 110 109 94 90 83 77 72 74 75 74 71 66 59 51 44 38 33 32 35 34 21 7 1 19 17 12 20 19
143 143 140 143 139 137 139 126 113 108 102 96 95 93 90 86 80 85 77 80 93 71 73 72 65 62 58 52 42 34 30 28 26 23 15 4 353 346 354 356 349 345 342
137 139 138 135 137 144 140 133 124 113 106 103 102 100 96 91 85 84 72 51 74 58 71 68 61 57 44 36 23 16 14 15 16 0 354 355 343 317 322 332 334 322 320
135 137 140 136 139 143 139 124 121 120 116 113 112 111 108 104 101 91 77 58 42 25 91 58 58 35 14 4 358 356 356 358 1 353 346 337 330 318 309 314 307 292 294
142 144 146 139 136 136 135 135 135 132 130 128 126 113 103 102 94 80 69 60 48 29 24 21 33 4 351 344 343 345 348 349 346 341 338 329 323 317 316 308 305 303 299
148 140 144 136 135 141 144 144 146 144 136 129 124 113 103 97 92 78 64 34 14 10 3 355 341 332 330 331 332 335 340 342 335 330 325 316 313 313 307 307 305 299 294
147 145 136 141 146 154 156 158 159 154 142 139 136 128 111 93 57 20 4 345 339 336 331 327 323 320 316 319 324 327 328 326 321 318 316 312 311 312 308 306 305 299 295
149 156 155 152 163 174 169 169 172 171 164 155 148 130 104 54 14 0 349 338 330 330 333 333 329 324 321 324 326 324 321 314 315 308 302 295 298 302 303 302 302 302 293
165 171 167 167 176 177 178 176 183 208 187 170 158 136 32 327 316 307 299 305 305 303 301 304 305 309 315 309 308 307 309 300 301 295 293 285 291 296 296 296 299 300 295
181 184 185 177 180 179 186 169 203 226 213 185 197 223 252 272 288 305 302 304 303 301 305 308 306 308 303 302 305 301 309 305 299 295 290 280 285 289 294 293 290 291 294
184 184 192 187 182 184 191 172 197 214 211 258 255 253 267 282 292 288 293 309 312 318 311 317 312 312 311 302 300 298 297 297 291 289 280 271 283 288 286 290 294 297 291
180 190 192 188 183 191 186 192 189 194 215 234 259 270 267 270 276 287 288 292 290 295 294 291 291 298 299 299 301 305 300 294 295 294 290 267 279 290 294 294 291 294 295
185 190 194 182 191 190 204 189 202 211 213 233 251 262 259 272 282 293 291 296 294 299 294 295 293 299 304 305 300 297 299 299 296 293 294 276 271 284 294 300 305 308 308
183 194 184 194 196 181 201 206 211 217 233 240 257 260 250 253 271 283 294 292 288 294 296 294 294 296 290 285 289 289 288 292 294 295 296 298 274 275 288 303 309 313 312
189 179 187 191 186 194 208 211 218 229 238 247 264 276 270 263 270 277 282 285 297 291 276 268 280 272 276 287 282 287 301 304 305 305 307 307 310 293 287 306 317 321 318
168 190 185 185 191 202 213 223 230 240 251 284 296 297 298 297 294 290 295 298 302 302 302 302 307 302 325 332 322 314 307 303 306 313 319 317 318 318 319 332 336 339 336
194 186 191 184 197 205 203 212 225 247 350 359 360 2 3 3 350 310 321 339 344 11 30 4 356 346 334 329 323 310 308 305 315 324 326 331 339 335 332 339 346 346 345
150 162 157 165 175 175 167 157 117 92 70 58 52 48 46 40 37 49 50 38 20 36 28 10 353 357 352 354 326 318 312 311 325 336 340 338 345 343 337 335 339 338 332
76 111 118 121 68 145 141 131 109 92 90 66 55 44 42 41 43 46 51 45 35 45 34 23 355 5 23 356 348 336 322 321 55 345 340 337 348 349 335 329 333 329 329
94 83 75 76 63 66 90 98 103 116 89 79 61 49 43 45 41 46 45 44 41 41 36 30 25 357 353 34 359 288 325 327 322 326 307 329 329 333 333 324 324 325 325
82 88 91 80 69 61 89 104 89 93 80 56 43 48 37 42 45 47 48 47 46 46 47 35 18 15 343 352 348 270 331 309 333 308 313 309 321 319 318 319 307 311 313
90 81 85 81 73 57 53 77 82 90 102 67 68 70 53 43 41 40 41 42 45 35 34 26 16 8 357 347 336 17 323 307 306 310 294 319 321 325 313 314 314 314 309
93 91 79 80 73 69 70 76 87 87 89 88 78 73 53 45 40 34 35 34 35 30 29 25 20 14 12 346 359 343 338 319 315 320 304 318 304 308 296 301 308 304 302
63 74 81 77 60 63 78 76 93 100 98 91 68 66 51 46 39 29 26 29 27 25 22 14 17 20 15 9 0 359 347 340 330 327 310 319 307 302 312 295 292 287 309